Lapse_Rate
6.2 6.1 6.1 6.2 6.2 6.2 6.2 6.3 6.1 6.4 6.7 6.7 6.8 7.1 7.0 6.9 7.1 7.2 7.2 7.4 7.6 7.6 7.5 7.6 7.4 7.3 7.0 7.3 7.4 7.0 7.5 7.1 7.4 7.7 7.5 7.5 7.2 7.3 7.2 7.0 7.4 7.2 7.0 7.1
6.4 6.2 6.1 6.2 6.3 6.3 6.2 6.3 6.1 6.5 6.6 6.5 6.7 6.7 6.7 6.8 6.6 6.7 6.8 6.9 7.0 7.1 7.2 7.0 7.0 6.8 7.1 7.2 7.5 7.2 7.4 6.8 7.3 7.2 6.6 6.6 7.2 7.2 6.9 6.5 6.5 6.7 6.7 7.4
6.5 6.4 6.2 6.3 6.4 6.4 6.3 6.1 6.1 6.3 6.5 6.4 6.5 6.5 6.5 6.7 6.5 6.5 6.6 6.7 6.7 6.8 6.8 6.8 6.7 6.7 7.1 7.2 7.4 7.3 7.2 6.8 7.0 7.2 7.4 7.2 7.3 7.3 7.2 7.1 6.7 6.6 7.0 7.2
6.6 6.5 6.3 6.3 6.3 6.4 6.3 6.3 6.4 6.6 6.5 6.4 6.7 6.8 6.9 6.6 6.5 6.6 6.7 6.8 6.8 6.8 6.7 6.8 6.7 6.4 7.1 7.1 7.1 7.2 7.1 6.6 6.8 7.0 6.7 6.8 7.0 7.0 7.0 7.1 7.2 7.3 7.3 7.4
6.7 6.6 6.5 6.4 6.3 6.3 6.2 6.2 6.1 6.5 6.4 6.7 6.5 6.7 6.8 6.9 6.7 6.6 6.7 6.9 6.8 6.7 6.7 6.7 6.7 6.5 6.5 6.4 6.9 6.2 7.0 6.5 6.8 7.0 6.6 6.5 6.7 6.5 6.3 6.7 7.1 7.4 7.3 7.3
6.8 6.7 6.5 6.5 6.4 6.2 5.9 6.2 6.4 6.3 6.7 6.4 6.4 6.5 6.6 6.8 6.7 6.8 6.9 6.9 6.6 6.5 6.2 6.6 6.8 6.7 6.6 6.4 6.1 6.4 6.7 6.6 6.6 6.4 6.5 6.9 6.9 6.7 6.7 6.8 6.9 7.0 7.1 7.0
7.0 6.8 6.7 6.5 6.4 6.4 6.4 6.7 6.5 6.3 6.5 6.5 6.5 6.5 6.7 6.7 6.6 6.7 6.6 6.5 6.4 6.5 6.7 6.8 6.9 6.8 6.8 6.7 6.7 6.5 6.6 6.4 6.3 6.3 6.3 6.4 6.9 6.7 6.5 6.5 6.8 6.9 7.1 6.6
7.1 7.0 6.9 6.8 6.6 6.5 6.4 6.4 6.4 6.5 6.7 6.7 6.3 6.4 6.5 6.2 6.5 6.5 6.2 6.4 6.5 6.4 6.5 6.6 6.6 6.6 6.6 6.4 6.4 6.3 6.0 6.3 6.1 5.8 5.5 6.2 6.6 6.1 6.5 6.3 6.7 6.3 6.5 6.5
7.1 7.1 7.1 7.0 6.9 6.8 6.7 6.6 6.5 6.6 6.7 6.5 6.4 6.4 6.1 6.4 6.0 6.2 6.8 6.5 6.6 6.4 6.4 6.4 6.5 6.3 6.4 5.6 6.0 6.3 6.3 6.1 5.9 5.5 5.1 5.8 6.5 6.3 6.0 6.0 5.9 5.6 6.1 6.2
7.1 7.1 7.1 7.0 7.0 6.9 7.0 6.9 6.8 6.6 6.4 6.6 6.5 6.2 6.3 5.9 6.3 6.4 6.6 6.5 6.4 6.3 6.3 6.3 6.5 6.2 6.3 6.1 6.0 6.3 6.1 5.9 5.7 5.1 4.9 5.5 6.1 5.8 6.2 5.9 5.8 6.1 6.1 6.0
7.2 7.2 7.2 7.2 7.1 7.0 7.0 7.0 7.0 6.8 6.8 6.8 6.5 6.3 6.1 6.1 6.3 6.0 6.4 6.3 6.2 6.4 6.3 6.3 6.4 6.3 6.2 6.1 6.1 6.3 6.2 6.0 5.9 5.3 5.3 5.4 5.8 5.7 5.5 5.9 6.0 5.5 5.8 5.6
7.1 7.2 7.2 7.2 7.3 7.2 7.1 6.9 6.9 6.9 6.8 6.8 6.8 6.7 6.6 6.7 6.2 6.0 6.6 6.1 6.5 6.3 6.3 6.3 6.3 6.3 6.2 6.3 6.2 6.5 6.3 6.4 6.1 6.0 6.6 6.3 6.1 5.6 5.7 5.8 5.8 5.7 5.8 5.7
7.0 7.1 7.2 7.2 7.2 7.2 7.0 7.2 7.0 6.9 6.8 6.7 6.5 6.5 6.7 6.6 6.5 6.6 6.3 6.4 6.1 6.3 6.1 6.4 6.1 6.1 6.3 6.3 6.3 6.7 6.4 6.9 6.5 6.1 6.5 6.4 6.0 5.9 5.6 5.8 6.0 5.8 5.6 5.2
7.1 7.1 7.0 7.1 7.1 7.1 7.0 7.1 7.1 6.9 7.0 6.7 6.6 6.7 6.5 6.6 6.5 6.4 6.4 6.4 6.3 5.9 6.1 5.9 5.9 6.0 6.1 6.0 6.3 6.0 6.6 6.7 6.7 6.2 6.4 6.1 6.1 6.1 6.1 5.9 5.9 5.9 5.4 5.2
7.0 7.1 7.0 7.1 7.1 7.1 7.0 7.0 6.9 6.8 6.7 6.4 6.7 6.7 6.7 6.5 6.4 6.4 6.3 6.2 6.2 6.0 5.9 5.9 6.0 5.9 6.2 5.5 5.3 5.7 7.3 7.0 6.5 6.4 6.2 6.1 6.0 5.9 5.9 5.8 6.0 5.5 5.1 4.8
6.8 6.8 6.9 6.8 6.9 7.0 6.9 6.7 6.7 6.8 6.6 6.5 6.4 6.5 6.5 6.4 6.4 6.4 6.3 6.2 6.1 6.1 6.0 5.9 5.7 5.8 5.9 5.4 5.3 6.4 6.8 6.6 6.4 6.4 6.2 6.1 6.0 5.9 6.0 5.7 5.7 5.1 4.7 4.7
6.6 6.7 6.7 6.6 6.8 6.8 6.7 6.7 7.0 6.9 6.7 6.4 6.2 6.0 6.3 6.4 6.4 6.2 6.3 6.2 6.1 6.3 5.9 5.5 6.0 5.9 5.6 5.0 5.2 6.8 6.6 6.4 5.9 6.1 6.1 5.7 5.8 6.0 5.8 5.6 5.4 5.4 5.0 4.8
6.5 6.7 6.6 6.6 6.6 6.6 6.5 6.5 6.7 6.8 6.7 6.5 5.9 5.5 6.0 6.6 6.5 6.5 6.4 6.3 6.5 6.1 5.9 5.5 5.7 5.8 5.5 5.1 6.1 6.8 6.8 6.3 6.4 6.3 5.9 5.8 5.9 5.6 5.6 5.4 5.1 4.8 4.7 5.0
6.1 6.3 6.4 6.5 6.5 6.5 6.8 6.7 6.8 6.7 6.4 6.0 5.6 5.7 5.9 6.3 6.5 6.6 6.6 6.4 6.3 6.1 5.8 6.1 5.8 5.4 5.3 6.4 6.4 6.5 6.0 6.3 6.3 5.9 5.8 5.8 5.5 5.5 5.2 5.2 5.1 5.1 5.2 5.4
5.9 5.9 6.0 6.0 6.3 6.7 6.7 6.5 6.4 6.3 6.3 5.9 5.8 5.9 6.0 6.3 6.3 6.5 6.5 6.4 6.2 5.9 6.1 6.2 6.0 6.0 6.4 6.6 7.0 6.9 6.5 6.2 6.0 5.9 5.9 5.4 5.5 5.2 5.3 5.2 5.2 5.3 5.4 5.5
6.1 5.9 5.8 5.7 6.1 6.3 6.5 6.2 6.0 5.9 5.8 5.9 6.0 6.0 5.9 6.0 6.2 6.4 6.5 6.3 6.2 6.0 6.0 5.7 5.7 5.7 6.0 6.6 6.9 6.9 6.4 6.0 5.9 5.5 5.4 5.4 5.3 5.3 5.2 5.3 5.4 5.5 5.5 5.5
6.1 6.1 6.0 6.0 6.1 6.2 6.1 6.1 5.8 5.8 5.8 5.7 5.7 6.3 6.5 6.2 6.1 6.1 6.2 6.1 6.2 6.4 5.7 5.4 5.4 5.6 5.6 6.2 6.2 6.2 6.1 6.0 6.0 5.8 5.3 5.4 5.4 5.3 5.6 5.6 5.7 5.6 5.5 5.5
6.2 6.3 6.1 6.0 5.9 6.2 6.1 5.8 5.3 5.4 5.6 5.3 5.9 6.0 6.1 6.2 5.9 6.1 6.0 6.0 5.9 5.8 5.3 5.2 5.1 5.4 5.8 5.9 6.0 5.9 5.8 6.1 5.9 5.5 5.6 5.6 5.5 5.7 5.7 5.7 5.5 5.4 5.5 5.6
5.8 5.7 5.7 5.8 5.6 5.5 5.8 5.5 5.1 5.1 5.2 5.3 5.5 5.6 6.1 5.7 5.8 6.0 5.8 5.5 5.4 5.2 5.0 4.9 5.5 5.5 5.1 5.4 5.7 5.8 6.0 5.8 5.5 5.5 5.4 5.6 5.8 5.8 5.7 5.7 5.7 5.7 5.7 5.8
5.8 5.7 5.5 5.2 5.2 5.3 5.5 5.6 5.6 5.7 5.6 5.4 5.4 5.4 5.6 5.5 5.6 5.2 5.2 5.0 5.1 5.1 5.4 5.4 5.1 4.9 5.0 5.5 5.6 5.7 5.6 5.6 5.5 5.5 5.7 5.8 5.7 5.8 5.8 5.8 5.9 5.9 5.9 6.0
6.0 5.9 5.6 5.3 5.2 5.2 5.3 5.3 5.3 5.3 5.2 5.3 5.1 5.1 4.9 4.8 4.9 5.0 5.0 5.2 5.2 5.4 5.1 5.0 5.1 5.1 5.3 5.7 5.8 5.6 5.5 5.6 5.7 5.7 5.7 5.8 5.9 5.9 5.9 6.1 6.1 6.0 6.1 6.2
6.0 6.0 6.1 6.1 5.9 5.8 5.7 5.7 5.6 5.5 5.5 5.4 5.2 5.1 5.0 4.8 4.9 4.9 5.1 5.3 5.2 5.2 5.4 5.5 5.6 5.6 5.5 5.6 5.6 5.8 5.8 5.7 5.9 6.1 6.1 6.1 6.1 6.2 6.3 6.3 6.4 6.3 6.6 6.7
Wind_Speed
6 8 11 13 9 4 1 4 5 4 4 5 6 8 2 1 7 2 2 4 2 3 4 2 4 7 8 4 5 4 4 2 1 8 6 3 2 4 3 0 2 1 1 6
6 9 12 12 10 6 4 5 4 3 3 5 4 4 5 4 7 8 5 2 1 2 5 3 6 8 5 5 7 4 4 1 3 8 5 5 1 3 2 4 2 4 3 4
6 9 13 16 13 6 2 4 3 4 5 7 11 7 7 5 3 4 1 5 4 5 5 3 6 9 4 5 7 3 3 1 1 2 6 8 8 11 10 10 4 6 7 14
5 9 12 15 14 5 2 4 5 7 6 7 6 10 9 10 6 5 6 5 6 6 3 6 5 11 8 4 3 2 3 1 5 7 9 8 10 12 12 13 12 9 10 15
4 8 13 16 15 4 3 4 2 3 3 10 9 5 6 11 8 8 9 5 7 7 6 3 6 5 4 3 4 2 4 1 3 3 5 11 14 15 14 14 14 11 11 14
4 9 14 17 17 4 4 1 2 2 2 4 6 6 9 10 9 2 5 7 8 10 12 12 11 10 8 6 4 3 2 1 2 2 11 10 2 3 7 8 8 9 6 9
6 10 15 18 18 11 3 3 2 3 1 5 9 9 8 8 9 6 7 7 9 9 13 11 11 11 8 5 5 4 4 2 2 2 5 3 4 13 11 9 7 8 9 8
6 11 15 18 20 19 2 2 3 3 2 7 7 8 8 10 5 9 13 9 10 10 3 3 2 2 4 2 4 3 3 4 2 1 3 9 9 4 5 5 11 10 7 10
6 10 14 17 20 20 1 3 3 3 5 3 7 8 12 7 8 7 5 4 4 1 2 2 3 3 2 6 6 7 4 5 1 2 2 3 2 7 5 8 7 9 8 9
5 8 13 16 18 20 5 3 4 2 2 4 4 6 8 8 7 5 7 5 2 2 2 2 3 3 2 5 5 4 3 2 4 4 4 6 9 4 4 3 2 7 5 8
5 7 11 14 16 18 6 3 4 3 2 3 5 3 6 3 7 4 8 4 1 2 3 3 3 1 4 1 4 7 7 6 4 3 3 6 1 1 2 6 9 5 6 5
4 6 9 12 15 18 11 1 1 3 2 3 6 5 6 6 7 4 7 2 7 5 3 2 1 2 2 3 3 7 4 6 4 9 5 7 3 4 2 1 2 3 3 4
2 4 6 10 13 15 10 3 3 1 2 3 3 3 3 4 6 4 3 1 4 6 3 4 3 3 4 4 4 3 4 7 3 3 8 10 7 2 6 6 4 3 2 5
2 2 4 8 11 14 12 2 3 1 3 4 3 1 2 2 2 1 3 3 6 5 4 3 3 3 8 5 6 4 5 4 6 8 12 10 6 10 9 5 1 2 7 3
2 1 3 6 11 14 8 3 3 4 3 3 1 1 3 0 1 4 4 6 6 3 2 2 4 2 1 3 1 3 5 9 7 8 6 1 5 8 3 2 2 5 3 4
5 1 2 4 8 12 3 3 3 7 4 3 2 2 2 2 3 5 5 5 3 4 4 3 3 6 3 3 3 7 9 7 6 6 5 7 8 5 3 4 3 2 4 7
7 3 1 5 7 4 2 1 2 9 4 2 1 2 2 4 4 2 2 3 2 1 1 3 2 2 4 4 5 7 8 8 5 6 9 6 3 4 4 3 2 4 5 7
8 5 2 2 2 3 1 2 3 7 1 1 2 2 1 3 1 2 3 2 2 1 1 1 2 2 1 4 8 10 13 8 8 6 4 7 8 6 8 5 1 5 7 8
10 8 7 1 1 2 1 2 4 2 2 2 2 5 4 4 2 2 2 1 1 0 1 2 1 3 6 6 7 8 7 7 9 8 6 9 10 5 2 2 4 6 8 8
16 3 2 1 2 3 2 1 1 2 2 2 3 3 3 4 2 1 2 2 1 2 2 2 2 3 10 10 8 4 8 10 10 8 8 7 4 1 2 4 5 7 7 7
2 2 1 1 4 1 1 2 3 2 2 3 3 6 5 3 3 3 0 3 2 3 2 4 3 3 6 11 7 3 4 7 8 7 6 7 3 2 3 4 4 2 4 5
4 3 3 1 2 2 4 5 1 4 4 3 3 1 3 2 0 3 2 3 2 4 6 2 3 3 6 9 7 6 7 9 9 8 6 4 2 4 4 4 4 4 3 5
3 4 4 2 2 2 2 4 2 2 2 2 2 2 2 2 2 3 2 6 5 1 3 3 2 6 5 8 7 8 10 10 7 6 5 6 5 5 2 5 5 4 5 7
3 2 3 2 2 2 1 2 2 2 2 2 3 3 2 1 2 2 3 1 2 3 3 4 1 5 5 7 6 7 10 8 6 3 3 3 2 4 4 5 6 4 7 7
2 0 2 2 1 1 2 2 1 3 1 2 2 2 2 2 3 0 3 4 3 2 2 3 4 7 9 7 7 8 6 4 2 2 3 3 4 4 6 5 5 6 5 7
2 2 2 1 1 1 2 2 1 1 1 0 2 2 1 2 2 2 1 1 0 2 2 2 5 6 6 4 4 3 1 3 3 4 5 5 4 5 7 6 5 6 8 9
1 2 1 2 3 2 1 1 2 2 2 2 1 2 4 1 0 1 1 1 2 2 2 4 5 5 3 1 1 2 2 3 5 5 6 6 5 3 4 8 10 7 7 8
Wind_Direction
352 350 360 1 9 32 197 205 219 145 157 195 220 229 133 303 167 231 67 0 138 144 134 98 80 110 55 49 332 58 36 74 303 67 80 32 360 356 334 93 320 216 192 279
358 346 357 4 14 19 287 212 128 160 200 205 229 124 123 201 169 186 177 119 24 69 132 109 112 109 70 29 34 32 352 76 268 145 155 173 333 20 317 105 88 255 256 279
2 347 356 5 10 24 269 236 122 146 203 272 190 186 169 147 330 117 170 119 159 138 144 98 137 119 105 61 71 324 305 88 44 334 328 334 308 304 286 265 187 246 263 288
11 351 353 6 8 17 231 260 175 169 187 243 235 183 182 168 172 204 179 177 181 154 138 134 142 120 134 140 144 177 4 76 9 326 314 307 307 298 293 280 270 257 267 273
18 360 359 6 10 24 246 306 146 177 148 204 220 132 213 195 186 170 186 196 189 160 142 196 166 149 171 133 171 83 40 104 6 257 5 345 302 301 285 278 274 277 315 306
26 16 11 10 11 356 255 72 312 208 322 196 206 167 231 207 126 296 224 188 133 75 71 65 61 57 51 79 138 126 55 13 37 277 344 313 6 270 348 334 328 313 290 274
32 25 20 13 12 13 305 22 287 95 183 208 195 209 213 173 166 175 120 125 105 104 108 72 60 55 49 108 69 73 129 59 79 298 316 5 32 328 294 326 304 304 311 55
42 29 24 16 12 8 14 2 320 108 158 212 205 203 181 118 120 130 86 44 107 149 148 123 103 51 44 45 50 99 141 139 94 291 302 291 300 61 22 5 309 309 22 27
49 33 26 21 12 7 348 51 315 60 120 250 201 186 139 150 137 100 100 72 85 178 80 102 154 179 192 155 135 42 60 93 238 122 246 254 339 46 33 313 269 48 28 4
57 38 28 22 14 8 343 72 10 289 93 63 322 167 168 151 165 145 146 157 139 300 91 113 177 189 273 175 176 185 100 159 201 199 245 279 270 17 331 258 29 4 24 357
59 37 27 21 13 11 358 90 26 345 61 68 7 9 205 161 187 138 144 127 151 82 97 152 197 154 225 170 191 163 168 163 198 198 233 255 68 302 219 358 333 43 9 44
62 36 24 17 11 3 358 136 27 323 22 76 21 37 18 14 354 144 161 191 147 164 132 161 154 183 0 24 215 206 210 188 186 188 215 212 316 202 289 51 156 77 265 188
86 36 19 11 9 2 358 23 6 279 74 123 174 132 34 45 11 351 135 329 205 161 67 141 167 184 173 179 228 277 250 271 212 201 252 268 287 47 123 118 86 129 229 275
137 44 10 2 359 358 345 356 9 316 71 115 128 165 139 354 333 45 359 123 61 90 104 122 156 177 201 195 260 254 218 265 268 275 283 287 59 101 115 118 140 216 236 284
166 99 10 356 351 347 332 46 38 20 319 165 119 318 96 104 228 171 126 133 141 121 103 133 206 224 315 83 69 237 241 260 248 260 274 251 94 126 104 41 96 254 351 325
166 139 353 345 347 340 265 178 91 16 338 96 119 77 161 160 210 199 181 181 201 185 152 195 252 182 182 154 227 245 255 282 306 316 47 74 114 70 115 137 174 14 354 298
179 176 320 337 350 344 1 22 0 329 307 97 68 200 50 312 182 123 229 49 22 250 218 181 217 248 199 160 225 245 275 260 259 68 118 114 93 135 171 169 163 192 288 327
188 166 123 20 20 117 222 84 335 323 38 58 150 159 241 220 105 108 328 56 8 277 294 76 203 245 59 245 241 251 255 251 106 132 94 140 158 188 195 190 13 335 327 343
169 139 133 65 342 211 105 153 318 349 335 208 122 159 197 152 62 57 54 23 156 328 246 202 224 163 221 229 244 252 225 153 151 149 179 176 189 162 112 13 337 333 335 344
138 111 136 240 243 317 145 85 178 351 218 153 179 185 164 155 160 80 113 18 254 227 213 133 235 252 264 267 289 291 138 142 157 175 183 162 144 145 15 339 338 334 351 320
71 98 96 287 356 160 2 146 201 177 248 197 192 180 150 191 136 150 123 173 157 240 173 216 231 253 233 238 215 144 154 156 167 161 137 90 93 21 332 339 31 353 296 288
87 101 98 62 51 30 184 180 164 192 216 120 136 108 99 72 138 129 185 165 155 236 143 215 251 241 76 106 131 161 153 143 117 108 112 87 30 359 19 331 303 293 325 283
48 39 51 28 47 180 208 204 218 216 129 148 143 68 94 113 72 89 149 189 207 9 182 234 243 93 120 135 143 142 86 68 75 101 65 30 351 352 317 287 284 276 282 280
62 73 97 332 144 56 33 323 357 347 59 99 103 98 116 118 99 128 186 141 190 207 220 209 95 99 123 123 115 134 106 84 69 26 327 317 274 259 256 263 266 268 275 281
75 107 73 63 65 23 344 310 359 343 60 52 57 62 95 107 122 186 126 175 209 234 205 67 52 53 86 81 87 93 118 139 198 328 336 289 270 265 279 267 257 255 267 280
97 80 137 125 105 40 14 6 27 29 301 80 44 78 83 76 55 179 186 227 241 75 51 48 76 69 83 99 115 139 125 51 343 316 301 289 270 257 270 283 283 270 260 269
51 103 27 88 84 107 88 318 20 2 21 46 359 46 54 161 143 63 43 9 70 114 128 56 91 106 118 81 317 185 232 269 277 284 282 280 281 288 283 280 281 257 235 221